Location: Grand Mazuras
(45.9128°N, 1.7636°E)
Time: 17:17:24
(UTC+00:00)

Cosmos 1408 - Pass Details

Date: 18 April 2021
Orbit: 467 x 493 km, 82.6° (Epoch: 11 May)

Event Time Altitude Azimuth Distance (km) Brightness Sun altitude
Rises 20:11:27 0° 343° (NNW) 2,519 7.0 -14.5°
Reaches altitude 10° 20:13:38 10° 335° (NNW) 1,635 6.2 -14.9°
Maximum altitude 20:16:56 37° 267° (W) 747 4.0 -15.3°
Drops below altitude 10° 20:20:13 10° 199° (SSW) 1,620 5.0 -15.8°
Enters shadow 20:21:06 - 195° (SSW) 1,971 5.4 -15.9°
